Regional Weather Roundup
Issued by NWS

Home | Current Version | Previous Version | Text Only | Print | Product List | Glossary On
Versions: 1 2 3 4 5 6 7 8 9 10 11 12 13 14 15 16 17 18 19 20 21 22 23 24 25 26 27 28 29 30 31 32 33 34 35 36 37 38 39 40 41 42 43 44 45 46 47 48 49 50
000
ASUS43 KBIS 211910
RWRND

NORTH DAKOTA REGIONAL WEATHER ROUNDUP
NATIONAL WEATHER SERVICE BISMARCK ND
100 PM CST SUN DEC 21 2014

NOTE: "FAIR" INDICATES FEW OR NO CLOUDS BELOW 12,000 FEET WITH NO
SIGNIFICANT WEATHER AND/OR OBSTRUCTIONS TO VISIBILITY.


NDZ001>003-009>011-017-212000-
NORTHWEST NORTH DAKOTA

CITY           SKY/WX    TMP DP  RH WIND       PRES   REMARKS
WILLISTON      CLOUDY    32  27  81 E3        29.37F
MINOT          SUNNY     35  30  82 E8        29.43F
MINOT AFB      SUNNY     30  30 100 E9        29.43F
$$

NDZ018>021-031>035-040>046-212000-
SOUTHWEST NORTH DAKOTA

CITY           SKY/WX    TMP DP  RH WIND       PRES   REMARKS
BISMARCK       SUNNY     36  28  73 SE15      29.47F
DICKINSON      CLOUDY    39  27  62 S9        29.37F
GARRISON         N/A     35  29  78 SE7       29.43F
HETTINGER ARPT CLOUDY    40  28  62 SW5       29.41F
$$

NDZ004>008-012>016-024-026-027-054-212000-
NORTHEAST NORTH DAKOTA

CITY           SKY/WX    TMP DP  RH WIND       PRES   REMARKS
GRAND FORKS    CLOUDY    31  29  92 S16       29.63F WCI  20
GRND FRKS AFB  CLOUDY    31  31 100 S14       29.62F
DEVILS LAKE    CLOUDY    27  19  74 SE7       29.53F WCI  19
$$

NDZ022-023-025-028>030-036>039-047>053-212000-
SOUTHEAST NORTH DAKOTA

CITY           SKY/WX    TMP DP  RH WIND       PRES   REMARKS
FARGO          CLOUDY    33  29  85 SE15G24   29.64F FOG
JAMESTOWN      FOG       32  29  88 SE14G22   29.54F VSB 3/4
$$




USA.gov is the U.S. government's official web portal to all federal, state and local government web resources and services.